Retour au catalogue

USA 482

ActifMilitaireVLEO
NORAD 62551·PAYLOAD·🇺🇸 United States

Lancé Jan 10, 2025 depuis Vandenberg Space Force Base

Loading…

Prochains Passages (prochaines 24 heures)

TLE

PériméSource: Mike McCants

Époque: Aug 26, 2026, 02:23 UTC

1 62551U 25005V   26238.09973037 0.00000000  00000-0  00000-0 0    03
2 62551  70.0280 226.5670 0004000 195.8720 164.1280 14.96713478    04

Suivez USA 482 en temps réel avec AllMySat

Download on the App Store